Regional Weather Roundup
Issued by NWS

Home | Current Version | Previous Version | Text Only | Print | Product List | Glossary On
Versions: 1 2 3 4 5 6 7 8 9 10 11 12 13 14 15 16 17 18 19 20 21 22 23 24 25 26 27 28 29 30 31 32 33 34 35 36 37 38 39 40 41 42 43 44 45 46 47 48 49 50
000
ASUS46 KSTO 010904
RWRCA

NORTHERN AND CENTRAL CA REGIONAL WEATHER ROUNDUP
NATIONAL WEATHER SERVICE SACRAMENTO CA
200 AM PDT SAT NOV 01 2014

NOTE: FAIR INDICATES FEW OR NO CLOUDS BELOW 12,000 FEET WITH NO
SIGNIFICANT WEATHER AND/OR OBSTRUCTIONS TO VISIBILITY.

CAZ001-003-011000-
NORTHWEST AREA

CITY           SKY/WX    TMP DP  RH WIND       PRES   REMARKS
CRESCENT CITY  PTCLDY    47  46  97 CALM      29.79F
UKIAH          MOCLDY    49  45  86 CALM      29.75R
$$

CAZ006-505>513-011000-
BAY AREA

CITY           SKY/WX    TMP DP  RH WIND       PRES   REMARKS
SANTA ROSA     MOCLDY    48  46  93 E5        29.74R
SAN RAFAEL     N/A       57  MM  MM MISG
NAPA           CLOUDY    49  47  93 W7        29.74R
CONCORD        CLOUDY    53  50  89 SW7       29.74S
OAKLAND CITY   N/A       57  MM  MM MISG
OAKLAND        CLOUDY    57  49  74 W13       29.75S
SAN FRAN CITY  N/A       57  MM  72 MISG
SAN FRAN ARPT  CLOUDY    58  53  84 W6        29.75S
LIVERMORE      CLOUDY    56  51  84 SW8       29.75R
HAYWARD        CLOUDY    58  53  84 W5        29.75S
REDWOOD CITY   N/A       MM  MM  MM MISG
MOFFETT ARPT   CLOUDY    54  54 100 SE3       29.77R
SAN JOSE ARPT  CLOUDY    52  51  97 E5        29.77R
$$
CAZ034-037-514>518-011000-
CENTRAL COAST

CITY           SKY/WX    TMP DP  RH WIND       PRES   REMARKS
WATSONVILLE    CLOUDY    56  56 100 CALM      29.79R
SALINAS        LGT RAIN  56  51  84 E9        29.78S
MONTEREY       CLOUDY    55  50  83 E7        29.78S
SAN LUIS OBISP LGT RAIN  56  53  90 MISG      29.82R
SANTA MARIA    LGT RAIN  57  51  80 S10       29.83R
$$
CAZ015-016-011000-
NORTHERN SACRAMENTO VALLEY

CITY           SKY/WX    TMP DP  RH WIND       PRES   REMARKS
REDDING        FOG       51  50  96 CALM      29.68S VSB 1/2
RED BLUFF      CLOUDY    52  50  93 NW5       29.69S
OROVILLE       CLOUDY    54  52  93 SW3       29.70R
$$
CAZ016>018-011000-
SOUTHERN SACRAMENTO VALLEY

CITY           SKY/WX    TMP DP  RH WIND       PRES   REMARKS
AUBURN         CLOUDY    50  50 100 SW7       29.71R
BEALE AFB      LGT RAIN  55  55 100 SE6       29.69R FOG
LINCOLN        CLOUDY    54  54 100 SE7       29.70R
MARYSVILLE     CLOUDY    56  54  93 SW6       29.70R
SAC INTL ARPT  CLOUDY    56  53  90 S8        29.71R
MATHER AIRPORT NOT AVBL
DOWNTOWN SAC   N/A       55  MM  MM MISG
SAC EXEC ARPT  CLOUDY    56  53  90 S5        29.71S
VACAVILLE      CLOUDY    54  51  90 SW3       29.72R
TRAVIS AFB     CLOUDY    54  54  99 SW10      29.70S
$$
CAZ019>021-011000-
SAN JOAQUIN VALLEY

CITY           SKY/WX    TMP DP  RH WIND       PRES   REMARKS
STOCKTON       CLOUDY    55  53  93 S13       29.75R
MODESTO        CLOUDY    53 N/A N/A VRB5      29.76R
MERCED         RAIN      54  51  90 S10       29.78R FOG
LEMOORE        LGT RAIN  53 N/A N/A E5        29.80F
FRESNO         LGT RAIN  55  52  89 SE12      29.80F
HANFORD        LGT RAIN  54  52  93 E8        29.80F
PORTERVILLE    CLOUDY    54  48  82 E6        29.81F
BAKERSFIELD    PTCLDY    55  50  83 E8        29.80F
$$
CAZ011-012-071-011000-
NORTHERN MOUNTAINS

CITY           SKY/WX    TMP DP  RH WIND       PRES   REMARKS
YREKA          CLOUDY    42  41  96 CALM      29.75S
MOUNT SHASTA   CLOUDY    42  39  89 CALM      29.70S
ALTURAS        LGT RAIN  41  40  96 CALM      29.67F
$$
CAZ011-012-071-011000-
SIERRA NEVADA MTNS

CITY           SKY/WX    TMP DP  RH WIND       PRES   REMARKS
BLUE CANYON    LGT RAIN  37  34  89 CALM      29.70F
TRUCKEE        DRIZZLE   34  34 100 CALM      29.67F
TAHOE VLY ARPT CLOUDY    37  33  85 CALM      29.66F
MAMMOTH LAKES  LGT SNOW  34  32  93 NW6       29.68F WCI  29
$$




USA.gov is the U.S. government's official web portal to all federal, state and local government web resources and services.